Date String (YYYY-MM-DD hh:mm:ss) UTC,Instrument flags,Ambient pressure (hPa),Sample flow (lpm),Bypass flow (lpm),Sample temperature (°C),Ambient temperature (°C),ASC tube jacket temperature (°C),LED temperature (°C),Box temperature (°C),Sample RH (%),Span deviation,Mass concentration (μg/m³),Mass concentration (μg/m³),Mass concentration (μg/m³)
DateTimeUTC,F1_M11,P_M11,Q1_M11,Q2_M11,T1_M11,T2_M11,T3_M11,T4_M11,T5_M11,U1_M11,ZSPAN_M11,X0_M11,X2_M11,X1_M11
2022-11-04 15:00:00,,0822.8,5.00,0.00,22.6,21.2,00.0,31.3,24.5,17.2,-002.4,0009.52,0007.93,0007.72
2022-11-04 15:01:00,,0822.8,5.00,0.00,22.6,21.2,00.0,31.3,24.5,17.2,-002.6,0009.31,0007.76,0007.56
2022-11-04 15:02:00,,0822.8,5.00,0.00,22.6,21.2,00.0,31.3,24.4,17.2,-000.9,0009.09,0007.61,0007.43
2022-11-04 15:03:00,,0822.8,5.01,0.00,22.6,21.2,00.0,31.3,24.4,17.2,0000.0,0008.86,0007.41,0007.28
2022-11-04 15:04:00,,0822.8,5.00,0.00,22.6,21.1,00.0,31.3,24.4,17.2,0000.0,0008.69,0007.26,0007.15
2022-11-04 15:05:00,,0822.7,5.00,0.00,22.5,21.1,00.0,31.3,24.4,17.1,0000.0,0008.57,0007.14,0007.03
2022-11-04 15:06:00,,0822.7,5.00,0.00,22.5,21.0,00.0,31.3,24.4,17.1,0000.0,0008.36,0007.00,0006.90
2022-11-04 15:07:00,,0822.6,4.99,0.00,22.5,20.8,00.0,31.3,24.4,17.1,0000.0,0008.24,0006.89,0006.79
2022-11-04 15:08:00,,0822.7,5.00,0.00,22.5,20.7,00.0,31.3,24.3,17.0,0000.0,0008.09,0006.75,0006.67
2022-11-04 15:09:00,,0822.7,5.00,0.00,22.4,20.5,00.0,31.3,24.2,16.9,0000.0,0007.97,0006.63,0006.55
2022-11-04 15:10:00,,0822.7,5.01,0.00,22.4,20.4,00.0,31.3,24.2,16.9,0000.0,0007.84,0006.53,0006.48
2022-11-04 15:11:00,,0822.7,5.01,0.00,22.3,20.4,00.0,31.2,24.1,16.8,0000.0,0007.76,0006.46,0006.40
2022-11-04 15:12:00,,0822.7,5.00,0.00,22.3,20.4,00.0,31.2,24.1,16.8,0000.0,0007.75,0006.43,0006.36
2022-11-04 15:13:00,,0822.7,4.98,0.00,22.3,21.0,00.0,31.2,24.2,16.7,0000.0,0007.77,0006.41,0006.33
2022-11-04 15:14:00,,0822.7,5.02,0.00,22.4,22.0,00.0,31.2,24.4,16.6,0000.0,0007.78,0006.39,0006.29
2022-11-04 15:15:00,,0822.7,5.00,0.00,22.5,22.0,00.0,31.2,24.5,16.6,0000.0,0007.75,0006.34,0006.24
2022-11-04 15:16:00,,0822.7,4.99,0.00,22.5,21.8,00.0,31.2,24.5,16.6,0000.0,0007.73,0006.30,0006.20
2022-11-04 15:17:00,,0822.7,5.00,0.00,22.5,21.5,00.0,31.2,24.4,16.6,0000.0,0007.70,0006.26,0006.15
2022-11-04 15:18:00,,0822.7,5.00,0.00,22.5,21.2,00.0,31.2,24.4,16.6,0000.0,0007.66,0006.23,0006.13
2022-11-04 15:19:00,,0822.8,5.01,0.00,22.4,21.1,00.0,31.2,24.3,16.6,0000.0,0007.67,0006.24,0006.14
2022-11-04 15:20:00,,0822.7,5.00,0.00,22.4,21.0,00.0,31.2,24.3,16.6,0000.0,0007.73,0006.28,0006.16
2022-11-04 15:21:00,,0822.7,5.00,0.00,22.4,20.8,00.0,31.2,24.2,16.7,0000.0,0007.81,0006.32,0006.20
2022-11-04 15:22:00,,0822.7,4.99,0.00,22.4,20.8,00.0,31.2,24.2,16.8,0000.0,0007.90,0006.39,0006.25
2022-11-04 15:23:00,,0822.8,4.99,0.00,22.4,20.7,00.0,31.2,24.2,16.8,0000.0,0007.92,0006.44,0006.31
2022-11-04 15:24:00,,0822.7,5.01,0.00,22.3,20.6,00.0,31.2,24.2,16.8,0000.0,0007.90,0006.44,0006.32
2022-11-04 15:25:00,,0822.7,5.00,0.00,22.3,20.6,00.0,31.2,24.1,16.8,0000.0,0007.90,0006.43,0006.31
2022-11-04 15:26:00,,0822.7,5.00,0.00,22.3,20.6,00.0,31.2,24.1,16.7,0000.0,0007.88,0006.40,0006.28
2022-11-04 15:27:00,,0822.6,5.00,0.00,22.2,20.5,00.0,31.1,24.0,16.6,0000.0,0007.89,0006.38,0006.25
2022-11-04 15:28:00,,0822.6,4.99,0.00,22.2,20.4,00.0,31.1,23.9,16.3,0000.0,0007.90,0006.36,0006.23
2022-11-04 15:29:00,,0822.7,4.98,0.00,22.1,20.3,00.0,31.1,23.9,16.0,0000.0,0007.91,0006.33,0006.19
2022-11-04 15:30:00,,0822.7,5.01,0.00,22.1,20.2,00.0,31.1,23.8,15.8,0000.0,0007.88,0006.29,0006.14
2022-11-04 15:31:00,,0822.6,5.01,0.00,22.0,20.0,00.0,31.0,23.7,15.7,0000.0,0007.81,0006.25,0006.11
2022-11-04 15:32:00,,0822.6,5.00,0.00,22.0,19.9,00.0,31.0,23.6,15.7,0000.0,0007.81,0006.24,0006.10
2022-11-04 15:33:00,,0822.6,5.00,0.00,21.9,19.9,00.0,31.0,23.6,15.8,0000.0,0007.75,0006.19,0006.06
2022-11-04 15:34:00,,0822.6,5.00,0.00,21.9,19.8,00.0,31.0,23.6,15.6,0000.0,0007.76,0006.16,0006.03
2022-11-04 15:35:00,,0822.6,4.99,0.00,21.8,19.8,00.0,30.9,23.5,15.6,0000.0,0007.76,0006.15,0006.00
2022-11-04 15:36:00,,0822.6,4.99,0.00,21.8,19.7,00.0,30.9,23.5,15.8,0000.0,0007.73,0006.15,0006.01
2022-11-04 15:37:00,,0822.7,5.01,0.00,21.8,20.1,00.0,30.8,23.5,15.7,0000.0,0007.75,0006.17,0006.02
2022-11-04 15:38:00,,0822.6,5.00,0.00,21.9,21.4,00.0,30.8,23.8,15.5,0000.0,0007.73,0006.17,0006.03
2022-11-04 15:39:00,,0822.6,4.98,0.00,22.0,22.1,00.0,30.8,24.1,15.4,0000.0,0007.67,0006.15,0006.01
2022-11-04 15:40:00,,0822.6,5.00,0.00,22.0,21.6,00.0,30.8,24.0,15.3,0000.0,0007.66,0006.13,0006.00
2022-11-04 15:41:00,,0822.6,5.01,0.00,22.0,21.1,00.0,30.9,23.9,15.3,0000.0,0007.67,0006.13,0006.00
2022-11-04 15:42:00,,0822.5,5.00,0.00,22.0,20.8,00.0,30.9,23.8,15.6,0000.0,0007.67,0006.13,0006.00
2022-11-04 15:43:00,,0822.4,4.99,0.00,22.0,20.6,00.0,30.9,23.8,15.8,0000.0,0007.61,0006.10,0005.98
2022-11-04 15:44:00,,0822.4,5.00,0.00,21.9,20.4,00.0,30.9,23.7,15.8,0000.0,0007.60,0006.10,0005.99
2022-11-04 15:45:00,,0822.4,5.01,0.00,21.9,20.3,00.0,30.8,23.7,15.8,0000.0,0007.57,0006.11,0006.00
2022-11-04 15:46:00,,0822.4,5.01,0.00,21.9,20.2,00.0,30.8,23.6,15.6,0000.0,0007.58,0006.12,0006.02
2022-11-04 15:47:00,,0822.4,5.00,0.00,21.8,20.1,00.0,30.8,23.6,15.6,0000.0,0007.61,0006.14,0006.04
2022-11-04 15:48:00,,0822.4,4.99,0.00,21.8,20.0,00.0,30.8,23.5,15.7,0000.0,0007.63,0006.18,0006.09
2022-11-04 15:49:00,,0822.4,5.01,0.00,21.8,20.0,00.0,30.8,23.5,15.7,0000.0,0007.65,0006.21,0006.14
2022-11-04 15:50:00,,0822.3,4.99,0.00,21.8,19.9,00.0,30.7,23.5,15.6,0000.0,0008.02,0006.28,0006.19
2022-11-04 15:51:00,,0822.4,5.00,0.00,21.7,19.9,00.0,30.7,23.4,15.6,0000.0,0008.17,0006.33,0006.25
2022-11-04 15:52:00,,0822.4,5.01,0.00,21.7,19.8,00.0,30.7,23.4,15.7,0000.0,0008.22,0006.39,0006.31
2022-11-04 15:53:00,,0822.4,5.01,0.00,21.6,19.7,00.0,30.7,23.3,15.7,0000.0,0008.28,0006.44,0006.35
2022-11-04 15:54:00,,0822.4,5.00,0.00,21.6,19.7,00.0,30.6,23.3,15.7,0000.0,0008.37,0006.49,0006.39
2022-11-04 15:55:00,,0822.4,4.98,0.00,21.6,19.7,00.0,30.6,23.3,15.8,0000.0,0008.43,0006.51,0006.40
2022-11-04 15:56:00,,0822.4,5.01,0.00,21.6,19.7,00.0,30.6,23.3,15.8,0000.0,0008.44,0006.52,0006.42
2022-11-04 15:57:00,,0822.4,5.01,0.00,21.5,19.7,00.0,30.6,23.2,15.8,0000.0,0008.44,0006.54,0006.44
2022-11-04 15:58:00,,0822.4,4.98,0.00,21.5,19.7,00.0,30.6,23.2,15.7,0000.0,0008.42,0006.54,0006.45
2022-11-04 15:59:00,,0822.4,5.01,0.00,21.5,19.8,00.0,30.5,23.2,15.7,0000.0,0008.42,0006.54,0006.45
